Location: Banios
(43.0451°N, 0.2335°E)
Time: 12:17:47
(UTC+00:00)

Cosmos 2026 Rocket - Pass Details

Date: 25 January 2021
Orbit: 940 x 1000 km, 82.9° (Epoch: 26 February)

Event Time Altitude Azimuth Distance (km) Brightness Sun altitude
Rises 06:14:16 0° 348° (NNW) 3,716 6.8 -12.3°
Reaches altitude 10° 06:16:50 10° 345° (NNW) 2,769 6.1 -11.8°
Maximum altitude 06:23:02 58° 268° (W) 1,157 4.1 -10.7°
Drops below altitude 10° 06:29:14 10° 191° (S) 2,761 6.5 -9.6°
Sets 06:31:48 0° 187° (S) 3,705 7.2 -9.2°
